Time,TemperatureF,DewpointF,PressureIn,WindDirection,WindDirectionDegrees,WindSpeedMPH,WindSpeedGustMPH,Humidity,HourlyPrecipIn,Conditions,Clouds,dailyrainin,SoftwareType,DateUTC
2013-01-28 00:03:00,40.0,36.1,29.47,WSW,248,1.1,4.7,86,0.00,,,0.00,WUHU216HW,2013-01-28 00:03:00,
2013-01-28 00:08:00,40.0,36.1,29.47,WNW,293,1.1,4.7,86,0.00,,,0.00,WUHU216HW,2013-01-28 00:08:00,
2013-01-28 00:13:00,40.0,36.1,29.47,SW,225,0.2,2.9,86,0.00,,,0.00,WUHU216HW,2013-01-28 00:13:00,
2013-01-28 00:18:00,40.0,36.4,29.48,West,270,0.4,1.8,87,0.00,,,0.00,WUHU216HW,2013-01-28 00:18:00,
2013-01-28 00:23:00,40.0,36.4,29.48,West,270,0.9,2.7,87,0.00,,,0.00,WUHU216HW,2013-01-28 00:23:00,
2013-01-28 00:28:00,40.0,36.4,29.48,West,270,1.8,3.1,87,0.00,,,0.00,WUHU216HW,2013-01-28 00:28:00,
2013-01-28 00:33:00,40.0,36.4,29.49,West,270,2.5,3.1,87,0.00,,,0.00,WUHU216HW,2013-01-28 00:33:00,
2013-01-28 00:38:00,40.0,36.4,29.49,SW,225,0.0,2.5,87,0.00,,,0.00,WUHU216HW,2013-01-28 00:38:00,
2013-01-28 00:43:00,40.0,36.4,29.49,SW,225,0.4,2.5,87,0.00,,,0.00,WUHU216HW,2013-01-28 00:43:00,
2013-01-28 00:48:00,39.8,36.2,29.49,WSW,248,0.0,2.2,87,0.00,,,0.00,WUHU216HW,2013-01-28 00:48:00,
2013-01-28 00:53:00,39.8,35.9,29.48,SSE,158,0.0,1.3,86,0.00,,,0.00,WUHU216HW,2013-01-28 00:53:00,
2013-01-28 00:58:00,39.6,36.0,29.49,South,180,0.9,3.4,87,0.00,,,0.00,WUHU216HW,2013-01-28 00:58:00,
2013-01-28 01:03:00,39.6,36.0,29.49,South,180,0.4,3.4,87,0.00,,,0.00,WUHU216HW,2013-01-28 01:03:00,
2013-01-28 01:08:00,39.4,35.8,29.48,South,180,3.1,3.1,87,0.00,,,0.00,WUHU216HW,2013-01-28 01:08:00,
2013-01-28 01:13:00,39.4,36.2,29.49,SW,225,2.7,3.8,88,0.00,,,0.00,WUHU216HW,2013-01-28 01:13:00,
2013-01-28 01:18:00,39.4,36.2,29.49,SW,225,2.7,3.8,88,0.00,,,0.00,WUHU216HW,2013-01-28 01:18:00,
2013-01-28 01:23:00,39.4,36.2,29.49,SW,225,2.7,2.7,88,0.00,,,0.00,WUHU216HW,2013-01-28 01:23:00,
2013-01-28 01:28:00,39.2,36.0,29.50,South,180,2.0,3.6,88,0.00,,,0.00,WUHU216HW,2013-01-28 01:28:00,
2013-01-28 01:33:00,39.2,36.3,29.50,SSE,158,2.9,3.6,89,0.00,,,0.00,WUHU216HW,2013-01-28 01:33:00,
2013-01-28 01:38:00,39.2,36.3,29.51,WNW,293,0.4,3.6,89,0.00,,,0.00,WUHU216HW,2013-01-28 01:38:00,
2013-01-28 01:43:00,39.4,36.5,29.51,SSW,203,1.6,3.6,89,0.00,,,0.00,WUHU216HW,2013-01-28 01:43:00,
2013-01-28 01:48:00,39.6,36.6,29.50,South,180,2.5,6.3,89,0.00,,,0.00,WUHU216HW,2013-01-28 01:48:00,
2013-01-28 01:53:00,39.8,36.8,29.50,SSW,203,2.5,6.3,89,0.00,,,0.00,WUHU216HW,2013-01-28 01:53:00,
2013-01-28 01:58:00,39.8,36.5,29.50,West,270,2.2,6.0,88,0.00,,,0.00,WUHU216HW,2013-01-28 01:58:00,
2013-01-28 02:03:00,40.0,36.6,29.50,WNW,293,1.6,4.0,88,0.00,,,0.00,WUHU216HW,2013-01-28 02:03:00,
2013-01-28 02:08:00,40.0,36.4,29.50,NW,315,0.7,3.6,87,0.00,,,0.00,WUHU216HW,2013-01-28 02:08:00,
2013-01-28 02:13:00,40.0,36.4,29.51,WSW,248,0.4,4.7,87,0.00,,,0.00,WUHU216HW,2013-01-28 02:13:00,
2013-01-28 02:18:00,40.0,36.4,29.51,South,180,0.7,4.7,87,0.00,,,0.00,WUHU216HW,2013-01-28 02:18:00,
2013-01-28 02:23:00,40.0,36.4,29.52,West,270,1.1,3.1,87,0.00,,,0.00,WUHU216HW,2013-01-28 02:23:00,
2013-01-28 02:28:00,40.0,36.4,29.52,WSW,248,1.6,3.4,87,0.00,,,0.00,WUHU216HW,2013-01-28 02:28:00,
2013-01-28 02:33:00,40.0,36.4,29.52,WSW,248,1.8,3.6,87,0.00,,,0.00,WUHU216HW,2013-01-28 02:33:00,
2013-01-28 02:38:00,39.8,36.2,29.52,SW,225,0.7,3.6,87,0.00,,,0.00,WUHU216HW,2013-01-28 02:38:00,
2013-01-28 02:43:00,39.6,36.0,29.52,SW,225,0.4,2.7,87,0.00,,,0.00,WUHU216HW,2013-01-28 02:43:00,
2013-01-28 02:48:00,39.4,35.8,29.52,WSW,248,2.7,4.0,87,0.00,,,0.00,WUHU216HW,2013-01-28 02:48:00,
2013-01-28 02:53:00,39.2,35.6,29.52,SW,225,0.2,4.0,87,0.00,,,0.00,WUHU216HW,2013-01-28 02:53:00,
2013-01-28 02:58:00,39.1,35.5,29.53,West,270,1.1,2.7,87,0.00,,,0.00,WUHU216HW,2013-01-28 02:58:00,
2013-01-28 03:03:00,38.9,35.3,29.53,WSW,248,1.3,2.5,87,0.00,,,0.00,WUHU216HW,2013-01-28 03:03:00,
2013-01-28 03:08:00,38.7,35.5,29.53,WSW,248,0.7,1.6,88,0.00,,,0.00,WUHU216HW,2013-01-28 03:08:00,
2013-01-28 03:13:00,38.5,35.3,29.53,SW,225,0.2,1.6,88,0.00,,,0.00,WUHU216HW,2013-01-28 03:13:00,
2013-01-28 03:18:00,38.3,35.4,29.53,SSW,203,0.4,1.3,89,0.00,,,0.00,WUHU216HW,2013-01-28 03:18:00,
2013-01-28 03:23:00,38.2,34.9,29.53,West,270,0.4,1.3,88,0.00,,,0.00,WUHU216HW,2013-01-28 03:23:00,
2013-01-28 03:28:00,38.0,35.0,29.54,WSW,248,0.4,0.9,89,0.00,,,0.00,WUHU216HW,2013-01-28 03:28:00,
2013-01-28 03:33:00,38.0,35.0,29.54,WSW,248,1.6,1.6,89,0.00,,,0.00,WUHU216HW,2013-01-28 03:33:00,
2013-01-28 03:38:00,38.0,35.0,29.54,West,270,0.4,1.6,89,0.00,,,0.00,WUHU216HW,2013-01-28 03:38:00,
2013-01-28 03:43:00,37.8,34.8,29.55,SSW,203,0.7,1.8,89,0.00,,,0.00,WUHU216HW,2013-01-28 03:43:00,
2013-01-28 03:48:00,37.8,34.8,29.55,SSW,203,1.8,3.6,89,0.00,,,0.00,WUHU216HW,2013-01-28 03:48:00,
2013-01-28 03:53:00,37.8,35.1,29.55,SE,135,1.1,3.6,90,0.00,,,0.00,WUHU216HW,2013-01-28 03:53:00,
2013-01-28 03:58:00,37.6,34.7,29.55,WSW,248,0.7,2.9,89,0.00,,,0.00,WUHU216HW,2013-01-28 03:58:00,
2013-01-28 04:03:00,37.6,34.7,29.55,WNW,293,1.1,1.8,89,0.00,,,0.00,WUHU216HW,2013-01-28 04:03:00,
2013-01-28 04:08:00,37.6,34.7,29.56,South,180,2.2,2.2,89,0.00,,,0.00,WUHU216HW,2013-01-28 04:08:00,
2013-01-28 04:13:00,37.6,34.7,29.56,WNW,293,0.2,2.2,89,0.00,,,0.00,WUHU216HW,2013-01-28 04:13:00,
2013-01-28 04:18:00,37.4,34.5,29.56,West,270,0.9,2.2,89,0.00,,,0.00,WUHU216HW,2013-01-28 04:18:00,
2013-01-28 04:23:00,37.4,34.5,29.57,West,270,0.7,1.6,89,0.00,,,0.00,WUHU216HW,2013-01-28 04:23:00,
2013-01-28 04:28:00,37.3,34.0,29.58,SW,225,0.4,1.6,88,0.00,,,0.00,WUHU216HW,2013-01-28 04:28:00,
2013-01-28 04:33:00,37.1,33.9,29.58,SE,135,0.2,1.8,88,0.00,,,0.00,WUHU216HW,2013-01-28 04:33:00,
2013-01-28 04:38:00,37.1,33.9,29.58,SSE,158,0.2,3.8,88,0.00,,,0.00,WUHU216HW,2013-01-28 04:38:00,
2013-01-28 04:43:00,37.1,33.9,29.58,West,270,0.4,3.8,88,0.00,,,0.00,WUHU216HW,2013-01-28 04:43:00,
2013-01-28 04:48:00,36.9,33.9,29.58,East,90,0.4,1.8,89,0.00,,,0.00,WUHU216HW,2013-01-28 04:48:00,
2013-01-28 04:53:00,36.9,33.9,29.58,West,270,0.7,1.8,89,0.00,,,0.00,WUHU216HW,2013-01-28 04:53:00,
2013-01-28 04:58:00,36.9,33.9,29.58,SW,225,1.1,2.5,89,0.00,,,0.00,WUHU216HW,2013-01-28 04:58:00,
2013-01-28 05:00:00,36.9,33.9,29.58,West,270,1.3,2.5,89,0.00,,,0.00,WUHU216HW,2013-01-28 05:00:00,
2013-01-28 05:01:00,36.9,33.9,29.58,WSW,248,1.1,2.7,89,0.00,,,0.00,WUHU216HW,2013-01-28 05:01:00,
2013-01-28 05:05:00,36.9,33.9,29.58,West,270,0.4,2.7,89,0.00,,,0.00,WUHU216HW,2013-01-28 05:05:00,
2013-01-28 05:10:00,36.9,33.9,29.58,SSW,203,0.2,2.7,89,0.00,,,0.00,WUHU216HW,2013-01-28 05:10:00,
2013-01-28 05:15:00,36.7,33.8,29.58,South,180,0.4,3.1,89,0.00,,,0.00,WUHU216HW,2013-01-28 05:15:00,
2013-01-28 05:20:00,36.7,33.8,29.58,WSW,248,0.4,3.1,89,0.00,,,0.00,WUHU216HW,2013-01-28 05:20:00,
2013-01-28 05:25:00,36.7,33.8,29.59,South,180,1.6,2.0,89,0.00,,,0.00,WUHU216HW,2013-01-28 05:25:00,
2013-01-28 05:31:00,36.5,33.8,29.59,SW,225,1.6,3.4,90,0.00,,,0.00,WUHU216HW,2013-01-28 05:31:00,
2013-01-28 05:36:00,36.5,33.8,29.59,SSW,203,2.5,3.4,90,0.00,,,0.00,WUHU216HW,2013-01-28 05:36:00,
2013-01-28 05:41:00,36.5,33.8,29.60,West,270,1.3,3.4,90,0.00,,,0.00,WUHU216HW,2013-01-28 05:41:00,
2013-01-28 05:46:00,36.5,33.8,29.60,WSW,248,1.1,3.4,90,0.00,,,0.00,WUHU216HW,2013-01-28 05:46:00,
2013-01-28 05:51:00,36.4,33.7,29.60,SSW,203,0.2,2.5,90,0.00,,,0.00,WUHU216HW,2013-01-28 05:51:00,
2013-01-28 05:56:00,36.4,33.7,29.60,South,180,1.1,4.0,90,0.00,,,0.00,WUHU216HW,2013-01-28 05:56:00,
2013-01-28 06:01:00,36.4,33.7,29.60,SW,225,1.3,4.0,90,0.00,,,0.00,WUHU216HW,2013-01-28 06:01:00,
2013-01-28 06:05:00,36.4,33.7,29.60,SW,225,1.6,4.0,90,0.00,,,0.00,WUHU216HW,2013-01-28 06:05:00,
2013-01-28 06:10:00,36.2,33.5,29.60,SSE,158,0.2,4.0,90,0.00,,,0.00,WUHU216HW,2013-01-28 06:10:00,
2013-01-28 06:16:00,36.0,33.3,29.60,SSE,158,0.0,2.5,90,0.00,,,0.00,WUHU216HW,2013-01-28 06:16:00,
2013-01-28 06:21:00,36.0,33.3,29.61,SSE,158,0.0,2.5,90,0.00,,,0.00,WUHU216HW,2013-01-28 06:21:00,
2013-01-28 06:26:00,35.8,33.1,29.61,SSW,203,0.2,0.9,90,0.00,,,0.00,WUHU216HW,2013-01-28 06:26:00,
2013-01-28 06:31:00,35.6,32.9,29.62,WSW,248,0.4,0.7,90,0.00,,,0.00,WUHU216HW,2013-01-28 06:31:00,
2013-01-28 06:36:00,35.6,32.9,29.61,SSW,203,0.4,0.7,90,0.00,,,0.00,WUHU216HW,2013-01-28 06:36:00,
2013-01-28 06:41:00,35.5,32.8,29.61,SSW,203,0.2,2.9,90,0.00,,,0.00,WUHU216HW,2013-01-28 06:41:00,
2013-01-28 06:46:00,35.6,33.2,29.61,WNW,293,0.2,3.8,91,0.00,,,0.00,WUHU216HW,2013-01-28 06:46:00,
2013-01-28 06:50:00,35.6,33.5,29.61,NW,315,0.4,3.8,92,0.00,,,0.00,WUHU216HW,2013-01-28 06:50:00,
2013-01-28 06:55:00,35.6,33.5,29.61,WSW,248,0.4,3.1,92,0.00,,,0.00,WUHU216HW,2013-01-28 06:55:00,
2013-01-28 07:00:00,35.6,33.5,29.61,South,180,0.7,3.1,92,0.00,,,0.00,WUHU216HW,2013-01-28 07:00:00,
2013-01-28 07:05:00,35.6,33.5,29.61,SSE,158,0.0,3.4,92,0.00,,,0.00,WUHU216HW,2013-01-28 07:05:00,
2013-01-28 07:10:00,35.6,33.2,29.62,SW,225,1.6,3.4,91,0.00,,,0.00,WUHU216HW,2013-01-28 07:10:00,
2013-01-28 07:16:00,35.5,33.3,29.62,SSW,203,2.0,2.0,92,0.00,,,0.00,WUHU216HW,2013-01-28 07:16:00,
2013-01-28 07:21:00,35.3,33.1,29.62,South,180,0.0,2.0,92,0.00,,,0.00,WUHU216HW,2013-01-28 07:21:00,
2013-01-28 07:26:00,35.3,32.9,29.63,SSW,203,0.2,1.6,91,0.00,,,0.00,WUHU216HW,2013-01-28 07:26:00,
2013-01-28 07:31:00,35.1,32.7,29.63,South,180,0.4,0.4,91,0.00,,,0.00,WUHU216HW,2013-01-28 07:31:00,
2013-01-28 07:36:00,34.9,32.5,29.63,NW,315,0.4,1.8,91,0.00,,,0.00,WUHU216HW,2013-01-28 07:36:00,
2013-01-28 07:41:00,34.9,32.8,29.64,SW,225,0.2,1.8,92,0.00,,,0.00,WUHU216HW,2013-01-28 07:41:00,
2013-01-28 07:46:00,35.1,32.9,29.64,WSW,248,0.4,1.3,92,0.00,,,0.00,WUHU216HW,2013-01-28 07:46:00,
2013-01-28 07:51:00,34.9,32.8,29.64,South,180,0.4,1.8,92,0.00,,,0.00,WUHU216HW,2013-01-28 07:51:00,
2013-01-28 07:56:00,34.9,32.8,29.64,SSE,158,0.4,1.8,92,0.00,,,0.00,WUHU216HW,2013-01-28 07:56:00,
2013-01-28 08:01:00,34.9,32.8,29.64,SW,225,0.4,1.8,92,0.00,,,0.00,WUHU216HW,2013-01-28 08:01:00,
2013-01-28 08:06:00,35.3,33.1,29.64,SW,225,0.2,1.1,92,0.00,,,0.00,WUHU216HW,2013-01-28 08:06:00,
2013-01-28 08:11:00,35.3,33.4,29.64,West,270,1.3,2.7,93,0.00,,,0.00,WUHU216HW,2013-01-28 08:11:00,
2013-01-28 08:16:00,35.6,33.8,29.65,SSW,203,1.1,4.0,93,0.00,,,0.00,WUHU216HW,2013-01-28 08:16:00,
2013-01-28 08:21:00,35.8,33.9,29.64,SSW,203,1.3,4.0,93,0.00,,,0.00,WUHU216HW,2013-01-28 08:21:00,
2013-01-28 08:26:00,36.2,34.3,29.65,South,180,0.4,2.5,93,0.00,,,0.00,WUHU216HW,2013-01-28 08:26:00,
2013-01-28 08:31:00,36.4,34.5,29.65,South,180,0.4,2.5,93,0.00,,,0.00,WUHU216HW,2013-01-28 08:31:00,
2013-01-28 08:36:00,36.4,34.2,29.65,SW,225,0.4,1.8,92,0.00,,,0.00,WUHU216HW,2013-01-28 08:36:00,
2013-01-28 08:41:00,36.7,34.6,29.65,West,270,1.1,3.4,92,0.00,,,0.00,WUHU216HW,2013-01-28 08:41:00,
2013-01-28 08:46:00,37.1,34.9,29.65,SSE,158,0.2,5.1,92,0.00,,,0.00,WUHU216HW,2013-01-28 08:46:00,
2013-01-28 08:51:00,37.4,35.3,29.65,South,180,0.4,5.1,92,0.00,,,0.00,WUHU216HW,2013-01-28 08:51:00,
2013-01-28 08:56:00,37.4,35.0,29.65,SE,135,0.4,2.9,91,0.00,,,0.00,WUHU216HW,2013-01-28 08:56:00,
2013-01-28 09:01:00,37.8,35.4,29.65,WNW,293,0.0,2.7,91,0.00,,,0.00,WUHU216HW,2013-01-28 09:01:00,
2013-01-28 09:06:00,38.0,35.3,29.66,SW,225,0.7,4.3,90,0.00,,,0.00,WUHU216HW,2013-01-28 09:06:00,
2013-01-28 09:11:00,38.3,35.6,29.66,South,180,1.8,4.3,90,0.00,,,0.00,WUHU216HW,2013-01-28 09:11:00,
2013-01-28 09:16:00,38.5,35.8,29.66,South,180,2.7,4.3,90,0.00,,,0.00,WUHU216HW,2013-01-28 09:16:00,
2013-01-28 09:21:00,38.9,36.2,29.66,West,270,3.6,4.9,90,0.00,,,0.00,WUHU216HW,2013-01-28 09:21:00,
2013-01-28 09:26:00,39.2,36.5,29.66,SSW,203,1.1,5.4,90,0.00,,,0.00,WUHU216HW,2013-01-28 09:26:00,
2013-01-28 09:31:00,39.4,36.5,29.66,West,270,1.6,5.4,89,0.00,,,0.00,WUHU216HW,2013-01-28 09:31:00,
2013-01-28 09:36:00,39.8,36.8,29.66,South,180,1.6,5.4,89,0.00,,,0.00,WUHU216HW,2013-01-28 09:36:00,
2013-01-28 09:41:00,40.0,36.6,29.66,SSE,158,3.6,5.8,88,0.00,,,0.00,WUHU216HW,2013-01-28 09:41:00,
2013-01-28 09:46:00,40.3,36.7,29.66,SSE,158,4.9,8.5,87,0.00,,,0.00,WUHU216HW,2013-01-28 09:46:00,
2013-01-28 09:51:00,40.7,37.1,29.66,South,180,6.9,8.5,87,0.00,,,0.00,WUHU216HW,2013-01-28 09:51:00,
2013-01-28 09:56:00,40.9,37.3,29.66,West,270,1.8,7.4,87,0.00,,,0.00,WUHU216HW,2013-01-28 09:56:00,
2013-01-28 10:01:00,41.2,37.3,29.66,SSW,203,0.4,7.4,86,0.00,,,0.00,WUHU216HW,2013-01-28 10:01:00,
2013-01-28 10:06:00,41.2,37.3,29.66,SSE,158,1.3,4.7,86,0.00,,,0.00,WUHU216HW,2013-01-28 10:06:00,
2013-01-28 10:11:00,41.4,37.4,29.66,SE,135,0.7,6.0,86,0.00,,,0.00,WUHU216HW,2013-01-28 10:11:00,
2013-01-28 10:16:00,41.4,37.4,29.66,SSE,158,4.3,6.0,86,0.00,,,0.00,WUHU216HW,2013-01-28 10:16:00,
2013-01-28 10:21:00,41.6,37.6,29.66,South,180,2.5,5.1,86,0.00,,,0.00,WUHU216HW,2013-01-28 10:21:00,
2013-01-28 10:26:00,41.8,37.8,29.66,SSE,158,2.5,4.3,86,0.00,,,0.00,WUHU216HW,2013-01-28 10:26:00,
2013-01-28 10:31:00,42.1,37.9,29.65,SE,135,1.1,4.7,85,0.00,,,0.00,WUHU216HW,2013-01-28 10:31:00,
2013-01-28 10:36:00,42.3,38.3,29.65,South,180,3.4,4.7,86,0.00,,,0.00,WUHU216HW,2013-01-28 10:36:00,
2013-01-28 10:41:00,42.7,38.4,29.65,WSW,248,2.9,4.9,85,0.00,,,0.00,WUHU216HW,2013-01-28 10:41:00,
2013-01-28 10:46:00,42.8,38.6,29.65,SSW,203,3.4,5.8,85,0.00,,,0.00,WUHU216HW,2013-01-28 10:46:00,
2013-01-28 10:51:00,43.2,39.0,29.65,SSW,203,4.7,7.2,85,0.00,,,0.00,WUHU216HW,2013-01-28 10:51:00,
2013-01-28 10:56:00,43.4,39.2,29.65,NE,45,3.4,7.2,85,0.00,,,0.00,WUHU216HW,2013-01-28 10:56:00,
2013-01-28 11:01:00,43.6,39.1,29.64,South,180,3.4,7.6,84,0.00,,,0.00,WUHU216HW,2013-01-28 11:01:00,
2013-01-28 11:06:00,43.6,39.1,29.64,SSW,203,1.1,7.6,84,0.00,,,0.00,WUHU216HW,2013-01-28 11:06:00,
2013-01-28 11:11:00,43.9,39.4,29.64,SSW,203,4.9,4.9,84,0.00,,,0.00,WUHU216HW,2013-01-28 11:11:00,
2013-01-28 11:16:00,44.1,39.6,29.64,SSW,203,2.0,6.5,84,0.00,,,0.00,WUHU216HW,2013-01-28 11:16:00,
2013-01-28 11:21:00,44.3,39.8,29.64,East,90,2.2,6.5,84,0.00,,,0.00,WUHU216HW,2013-01-28 11:21:00,
2013-01-28 11:26:00,44.3,39.8,29.64,South,180,4.0,6.3,84,0.00,,,0.00,WUHU216HW,2013-01-28 11:26:00,
2013-01-28 11:31:00,44.5,40.0,29.64,ESE,113,0.9,5.1,84,0.00,,,0.00,WUHU216HW,2013-01-28 11:31:00,
2013-01-28 11:36:00,44.6,40.2,29.64,NE,45,3.1,6.7,84,0.00,,,0.00,WUHU216HW,2013-01-28 11:36:00,
2013-01-28 11:41:00,44.6,39.8,29.63,SW,225,4.5,6.7,83,0.00,,,0.00,WUHU216HW,2013-01-28 11:41:00,
2013-01-28 11:46:00,44.8,40.0,29.63,South,180,5.8,6.3,83,0.00,,,0.00,WUHU216HW,2013-01-28 11:46:00,
2013-01-28 11:51:00,44.8,40.0,29.63,South,180,0.7,6.5,83,0.00,,,0.00,WUHU216HW,2013-01-28 11:51:00,
2013-01-28 11:56:00,44.8,40.0,29.63,ENE,68,2.7,7.4,83,0.00,,,0.00,WUHU216HW,2013-01-28 11:56:00,
2013-01-28 12:01:00,44.8,40.3,29.62,South,180,3.8,7.4,84,0.00,,,0.00,WUHU216HW,2013-01-28 12:01:00,
2013-01-28 12:06:00,44.8,40.3,29.62,SSE,158,5.8,6.0,84,0.00,,,0.00,WUHU216HW,2013-01-28 12:06:00,
2013-01-28 12:11:00,45.0,40.5,29.62,East,90,4.0,8.1,84,0.00,,,0.00,WUHU216HW,2013-01-28 12:11:00,
2013-01-28 12:16:00,45.0,40.5,29.62,South,180,3.8,8.3,84,0.00,,,0.00,WUHU216HW,2013-01-28 12:16:00,
2013-01-28 12:21:00,45.2,41.0,29.62,ESE,113,4.7,8.3,85,0.00,,,0.00,WUHU216HW,2013-01-28 12:21:00,
2013-01-28 12:26:00,45.0,41.0,29.61,SSW,203,2.9,6.7,86,0.00,,,0.00,WUHU216HW,2013-01-28 12:26:00,
2013-01-28 12:31:00,45.2,41.2,29.61,WSW,248,2.7,6.7,86,0.00,,,0.00,WUHU216HW,2013-01-28 12:31:00,
2013-01-28 12:36:00,45.4,41.4,29.60,ESE,113,2.2,6.3,86,0.00,,,0.00,WUHU216HW,2013-01-28 12:36:00,
2013-01-28 12:41:00,45.4,41.4,29.60,WNW,293,1.3,5.4,86,0.00,,,0.00,WUHU216HW,2013-01-28 12:41:00,
2013-01-28 12:46:00,45.5,41.3,29.60,ESE,113,4.0,4.9,85,0.00,,,0.00,WUHU216HW,2013-01-28 12:46:00,
2013-01-28 12:51:00,45.7,41.5,29.60,North,0,4.7,5.8,85,0.00,,,0.00,WUHU216HW,2013-01-28 12:51:00,
2013-01-28 12:56:00,45.7,41.5,29.60,NNE,23,3.1,5.8,85,0.00,,,0.00,WUHU216HW,2013-01-28 12:56:00,
2013-01-28 13:01:00,45.9,41.7,29.60,SW,225,5.4,5.4,85,0.00,,,0.00,WUHU216HW,2013-01-28 13:01:00,
2013-01-28 13:06:00,45.9,41.4,29.60,SSE,158,10.7,10.7,84,0.00,,,0.00,WUHU216HW,2013-01-28 13:06:00,
2013-01-28 13:11:00,46.1,41.6,29.59,SW,225,4.0,10.7,84,0.00,,,0.00,WUHU216HW,2013-01-28 13:11:00,
2013-01-28 13:16:00,46.3,41.4,29.59,SSW,203,6.9,10.7,83,0.00,,,0.00,WUHU216HW,2013-01-28 13:16:00,
2013-01-28 13:21:00,46.3,41.4,29.58,SSW,203,4.3,8.9,83,0.00,,,0.00,WUHU216HW,2013-01-28 13:21:00,
2013-01-28 13:26:00,46.3,41.1,29.58,SE,135,4.9,8.9,82,0.00,,,0.00,WUHU216HW,2013-01-28 13:26:00,
2013-01-28 13:31:00,46.4,41.3,29.59,South,180,3.4,8.9,82,0.00,,,0.00,WUHU216HW,2013-01-28 13:31:00,
2013-01-28 13:36:00,46.4,41.3,29.58,SSW,203,3.4,10.5,82,0.00,,,0.00,WUHU216HW,2013-01-28 13:36:00,
2013-01-28 13:41:00,46.4,41.6,29.58,WSW,248,4.5,10.5,83,0.00,,,0.00,WUHU216HW,2013-01-28 13:41:00,
2013-01-28 13:46:00,46.4,42.2,29.58,NNW,338,2.0,9.4,85,0.00,,,0.00,WUHU216HW,2013-01-28 13:46:00,
2013-01-28 13:51:00,46.3,42.3,29.57,SSW,203,4.3,5.6,86,0.00,,,0.00,WUHU216HW,2013-01-28 13:51:00,
2013-01-28 13:56:00,46.1,42.5,29.57,South,180,3.8,9.2,87,0.00,,,0.00,WUHU216HW,2013-01-28 13:56:00,
2013-01-28 14:01:00,45.9,42.6,29.56,SSW,203,3.4,9.2,88,0.00,,,0.00,WUHU216HW,2013-01-28 14:01:00,
2013-01-28 14:06:00,45.7,42.4,29.56,SSW,203,4.3,6.0,88,0.00,,,0.00,WUHU216HW,2013-01-28 14:06:00,
2013-01-28 14:11:00,45.7,42.8,29.55,SW,225,1.8,4.3,89,0.00,,,0.00,WUHU216HW,2013-01-28 14:11:00,
2013-01-28 14:16:00,45.7,43.0,29.55,SE,135,1.8,7.6,90,0.00,,,0.00,WUHU216HW,2013-01-28 14:16:00,
2013-01-28 14:21:00,45.7,43.0,29.55,SSW,203,2.7,7.6,90,0.00,,,0.00,WUHU216HW,2013-01-28 14:21:00,
2013-01-28 14:26:00,45.7,43.3,29.54,WNW,293,3.8,6.9,91,0.00,,,0.00,WUHU216HW,2013-01-28 14:26:00,
2013-01-28 14:31:00,45.7,43.3,29.53,South,180,3.8,9.2,91,0.00,,,0.00,WUHU216HW,2013-01-28 14:31:00,
2013-01-28 14:36:00,45.9,43.5,29.52,ESE,113,1.8,9.2,91,0.00,,,0.00,WUHU216HW,2013-01-28 14:36:00,
2013-01-28 14:41:00,45.9,43.5,29.52,SE,135,6.9,6.9,91,0.00,,,0.00,WUHU216HW,2013-01-28 14:41:00,
2013-01-28 14:46:00,46.3,43.8,29.52,East,90,2.5,6.9,91,0.00,,,0.00,WUHU216HW,2013-01-28 14:46:00,
2013-01-28 14:51:00,46.4,44.0,29.51,East,90,4.0,6.9,91,0.00,,,0.00,WUHU216HW,2013-01-28 14:51:00,
2013-01-28 14:56:00,46.4,44.0,29.51,NE,45,3.6,6.9,91,0.00,,,0.00,WUHU216HW,2013-01-28 14:56:00,
2013-01-28 15:01:00,46.4,43.7,29.50,ESE,113,7.2,9.4,90,0.00,,,0.00,WUHU216HW,2013-01-28 15:01:00,
2013-01-28 15:06:00,46.6,43.9,29.50,NE,45,3.8,9.4,90,0.01,,,0.01,WUHU216HW,2013-01-28 15:06:00,
2013-01-28 15:11:00,46.8,43.8,29.49,SSE,158,3.1,9.6,89,0.01,,,0.01,WUHU216HW,2013-01-28 15:11:00,
2013-01-28 15:16:00,46.8,43.8,29.49,South,180,3.6,9.6,89,0.01,,,0.01,WUHU216HW,2013-01-28 15:16:00,
2013-01-28 15:21:00,47.0,43.7,29.48,SW,225,5.6,9.6,88,0.01,,,0.01,WUHU216HW,2013-01-28 15:21:00,
2013-01-28 15:26:00,47.0,43.7,29.48,WSW,248,5.4,10.5,88,0.01,,,0.01,WUHU216HW,2013-01-28 15:26:00,
2013-01-28 15:31:00,47.0,43.7,29.47,SSW,203,3.4,11.2,88,0.01,,,0.01,WUHU216HW,2013-01-28 15:31:00,
2013-01-28 15:36:00,47.0,43.7,29.47,SE,135,6.5,11.2,88,0.01,,,0.01,WUHU216HW,2013-01-28 15:36:00,
2013-01-28 15:41:00,47.2,43.8,29.46,NE,45,2.9,8.9,88,0.01,,,0.01,WUHU216HW,2013-01-28 15:41:00,
2013-01-28 15:46:00,47.2,44.2,29.45,ENE,68,7.8,11.6,89,0.01,,,0.01,WUHU216HW,2013-01-28 15:46:00,
2013-01-28 15:51:00,47.2,44.2,29.45,ESE,113,3.4,11.6,89,0.01,,,0.01,WUHU216HW,2013-01-28 15:51:00,
2013-01-28 15:56:00,47.2,44.2,29.44,SSW,203,6.7,9.2,89,0.01,,,0.01,WUHU216HW,2013-01-28 15:56:00,
2013-01-28 16:01:00,47.0,44.3,29.43,SE,135,7.2,12.5,90,0.01,,,0.01,WUHU216HW,2013-01-28 16:01:00,
2013-01-28 16:06:00,47.0,44.6,29.42,ENE,68,4.0,12.5,91,0.00,,,0.01,WUHU216HW,2013-01-28 16:06:00,
2013-01-28 16:11:00,47.0,44.6,29.42,SE,135,1.8,15.7,91,0.00,,,0.01,WUHU216HW,2013-01-28 16:11:00,
2013-01-28 16:16:00,46.8,44.6,29.41,SW,225,9.2,15.7,92,0.00,,,0.01,WUHU216HW,2013-01-28 16:16:00,
2013-01-28 16:21:00,46.8,44.6,29.42,NW,315,6.9,11.0,92,0.00,,,0.01,WUHU216HW,2013-01-28 16:21:00,
2013-01-28 16:26:00,46.8,44.6,29.41,East,90,8.5,9.4,92,0.00,,,0.01,WUHU216HW,2013-01-28 16:26:00,
2013-01-28 16:31:00,46.8,44.9,29.39,SE,135,5.4,15.0,93,0.00,,,0.01,WUHU216HW,2013-01-28 16:31:00,
2013-01-28 16:36:00,46.8,44.9,29.40,NW,315,6.0,15.0,93,0.02,,,0.03,WUHU216HW,2013-01-28 16:36:00,
2013-01-28 16:41:00,46.8,45.2,29.40,WNW,293,9.2,12.5,94,0.02,,,0.03,WUHU216HW,2013-01-28 16:41:00,
2013-01-28 16:46:00,46.8,45.2,29.40,South,180,11.2,12.8,94,0.02,,,0.03,WUHU216HW,2013-01-28 16:46:00,
2013-01-28 16:51:00,46.8,45.2,29.40,NNE,23,13.4,13.4,94,0.02,,,0.03,WUHU216HW,2013-01-28 16:51:00,
2013-01-28 16:56:00,46.8,45.2,29.39,SSE,158,10.5,13.4,94,0.02,,,0.03,WUHU216HW,2013-01-28 16:56:00,
2013-01-28 17:01:00,46.8,45.2,29.38,NNE,23,10.3,13.4,94,0.03,,,0.04,WUHU216HW,2013-01-28 17:01:00,
2013-01-28 17:06:00,47.0,45.4,29.38,ENE,68,5.1,13.4,94,0.03,,,0.04,WUHU216HW,2013-01-28 17:06:00,
2013-01-28 17:11:00,47.0,45.4,29.39,SSW,203,11.4,11.4,94,0.03,,,0.04,WUHU216HW,2013-01-28 17:11:00,
2013-01-28 17:16:00,47.0,45.4,29.38,East,90,9.8,14.5,94,0.03,,,0.04,WUHU216HW,2013-01-28 17:16:00,
2013-01-28 17:21:00,47.2,45.5,29.38,SSE,158,6.0,14.5,94,0.03,,,0.04,WUHU216HW,2013-01-28 17:21:00,
2013-01-28 17:26:00,47.2,45.5,29.38,SSW,203,8.3,13.4,94,0.03,,,0.05,WUHU216HW,2013-01-28 17:26:00,
2013-01-28 17:31:00,47.3,45.7,29.38,SSE,158,7.8,14.5,94,0.03,,,0.05,WUHU216HW,2013-01-28 17:31:00,
2013-01-28 17:36:00,47.5,45.9,29.37,South,180,10.7,14.5,94,0.02,,,0.05,WUHU216HW,2013-01-28 17:36:00,
2013-01-28 17:41:00,47.5,45.9,29.37,SE,135,9.4,15.0,94,0.02,,,0.05,WUHU216HW,2013-01-28 17:41:00,
2013-01-28 17:46:00,47.7,46.1,29.37,South,180,6.5,15.0,94,0.02,,,0.05,WUHU216HW,2013-01-28 17:46:00,
2013-01-28 17:51:00,47.9,46.3,29.38,South,180,12.3,13.4,94,0.02,,,0.05,WUHU216HW,2013-01-28 17:51:00,
2013-01-28 17:56:00,47.9,46.3,29.38,SSW,203,8.1,12.3,94,0.02,,,0.05,WUHU216HW,2013-01-28 17:56:00,
2013-01-28 18:01:00,47.9,46.5,29.37,SSE,158,4.9,12.5,95,0.01,,,0.05,WUHU216HW,2013-01-28 18:01:00,
2013-01-28 18:06:00,47.9,46.5,29.37,South,180,8.3,12.5,95,0.02,,,0.06,WUHU216HW,2013-01-28 18:06:00,
2013-01-28 18:11:00,47.9,46.5,29.38,South,180,4.5,9.2,95,0.02,,,0.06,WUHU216HW,2013-01-28 18:11:00,
2013-01-28 18:16:00,47.9,46.5,29.38,West,270,4.9,9.8,95,0.03,,,0.07,WUHU216HW,2013-01-28 18:16:00,
2013-01-28 18:21:00,47.9,46.5,29.38,East,90,2.2,9.8,95,0.03,,,0.07,WUHU216HW,2013-01-28 18:21:00,
2013-01-28 18:26:00,47.9,46.5,29.37,South,180,1.8,11.0,95,0.03,,,0.08,WUHU216HW,2013-01-28 18:26:00,
2013-01-28 18:31:00,48.1,46.7,29.36,North,0,8.1,11.0,95,0.03,,,0.08,WUHU216HW,2013-01-28 18:31:00,
2013-01-28 18:36:00,48.2,46.9,29.36,SSW,203,7.8,9.8,95,0.03,,,0.08,WUHU216HW,2013-01-28 18:36:00,
2013-01-28 18:41:00,48.4,47.1,29.35,South,180,10.1,10.7,95,0.03,,,0.08,WUHU216HW,2013-01-28 18:41:00,
2013-01-28 18:46:00,48.6,47.3,29.35,SE,135,20.8,20.8,95,0.03,,,0.08,WUHU216HW,2013-01-28 18:46:00,
2013-01-28 18:51:00,49.0,47.6,29.35,SSE,158,9.6,20.8,95,0.03,,,0.08,WUHU216HW,2013-01-28 18:51:00,
2013-01-28 18:56:00,49.1,47.4,29.35,South,180,7.4,20.8,94,0.03,,,0.08,WUHU216HW,2013-01-28 18:56:00,
2013-01-28 19:01:00,49.3,47.6,29.36,South,180,15.7,15.7,94,0.03,,,0.08,WUHU216HW,2013-01-28 19:01:00,
2013-01-28 19:06:00,49.5,47.8,29.36,SSE,158,3.8,15.7,94,0.02,,,0.08,WUHU216HW,2013-01-28 19:06:00,
2013-01-28 19:11:00,49.7,47.7,29.37,SSW,203,8.5,17.0,93,0.02,,,0.08,WUHU216HW,2013-01-28 19:11:00,
2013-01-28 19:16:00,49.7,47.7,29.37,SSW,203,8.1,17.0,93,0.01,,,0.08,WUHU216HW,2013-01-28 19:16:00,
2013-01-28 19:21:00,49.7,47.7,29.37,WSW,248,8.1,13.4,93,0.01,,,0.08,WUHU216HW,2013-01-28 19:21:00,
2013-01-28 19:26:00,49.7,47.4,29.37,NNE,23,7.2,13.4,92,0.00,,,0.08,WUHU216HW,2013-01-28 19:26:00,
2013-01-28 19:31:00,49.9,47.3,29.37,SSW,203,6.0,12.3,91,0.00,,,0.08,WUHU216HW,2013-01-28 19:31:00,
2013-01-28 19:36:00,50.0,47.2,29.37,NNW,338,1.8,12.3,90,0.00,,,0.08,WUHU216HW,2013-01-28 19:36:00,
2013-01-28 19:41:00,50.0,46.9,29.37,SSW,203,9.4,12.5,89,0.00,,,0.08,WUHU216HW,2013-01-28 19:41:00,
2013-01-28 19:46:00,50.0,46.5,29.38,ENE,68,5.4,15.4,88,0.00,,,0.08,WUHU216HW,2013-01-28 19:46:00,
2013-01-28 19:51:00,50.2,46.5,29.38,SE,135,4.0,15.4,87,0.00,,,0.08,WUHU216HW,2013-01-28 19:51:00,
2013-01-28 19:56:00,50.2,46.5,29.38,SSW,203,1.3,8.1,87,0.00,,,0.08,WUHU216HW,2013-01-28 19:56:00,
2013-01-28 20:01:00,50.2,46.1,29.39,West,270,6.3,14.1,86,0.00,,,0.08,WUHU216HW,2013-01-28 20:01:00,
2013-01-28 20:06:00,50.0,45.9,29.39,NW,315,1.6,14.1,86,0.00,,,0.08,WUHU216HW,2013-01-28 20:06:00,
2013-01-28 20:11:00,50.0,45.6,29.38,South,180,5.4,6.9,85,0.00,,,0.08,WUHU216HW,2013-01-28 20:11:00,
2013-01-28 20:16:00,49.9,45.2,29.39,West,270,2.7,8.3,84,0.00,,,0.08,WUHU216HW,2013-01-28 20:16:00,
2013-01-28 20:21:00,49.9,44.8,29.39,WSW,248,6.3,10.5,83,0.00,,,0.08,WUHU216HW,2013-01-28 20:21:00,
2013-01-28 20:26:00,49.9,44.8,29.39,North,0,10.5,10.5,83,0.00,,,0.08,WUHU216HW,2013-01-28 20:26:00,
2013-01-28 20:31:00,49.9,45.2,29.40,South,180,2.5,10.5,84,0.00,,,0.08,WUHU216HW,2013-01-28 20:31:00,
2013-01-28 20:36:00,49.7,45.0,29.40,South,180,3.4,10.5,84,0.00,,,0.08,WUHU216HW,2013-01-28 20:36:00,
2013-01-28 20:41:00,49.7,45.3,29.40,NNW,338,1.8,5.8,85,0.00,,,0.08,WUHU216HW,2013-01-28 20:41:00,
2013-01-28 20:46:00,49.7,45.6,29.40,SE,135,2.2,8.5,86,0.00,,,0.08,WUHU216HW,2013-01-28 20:46:00,
2013-01-28 20:51:00,49.7,45.6,29.40,SW,225,3.6,9.4,86,0.00,,,0.08,WUHU216HW,2013-01-28 20:51:00,
2013-01-28 20:56:00,49.7,45.9,29.40,SSW,203,5.8,9.4,87,0.00,,,0.08,WUHU216HW,2013-01-28 20:56:00,
2013-01-28 21:01:00,49.7,45.6,29.40,South,180,2.9,8.1,86,0.00,,,0.08,WUHU216HW,2013-01-28 21:01:00,
2013-01-28 21:06:00,49.9,46.1,29.40,South,180,1.8,8.1,87,0.00,,,0.08,WUHU216HW,2013-01-28 21:06:00,
2013-01-28 21:11:00,49.9,46.4,29.40,South,180,2.5,7.8,88,0.00,,,0.08,WUHU216HW,2013-01-28 21:11:00,
2013-01-28 21:16:00,50.0,46.5,29.40,WNW,293,7.6,8.7,88,0.00,,,0.08,WUHU216HW,2013-01-28 21:16:00,
2013-01-28 21:21:00,50.0,46.5,29.40,SW,225,9.8,9.8,88,0.00,,,0.08,WUHU216HW,2013-01-28 21:21:00,
2013-01-28 21:26:00,50.0,46.5,29.40,NW,315,2.5,9.8,88,0.00,,,0.08,WUHU216HW,2013-01-28 21:26:00,
2013-01-28 21:31:00,50.2,46.7,29.40,East,90,2.7,9.6,88,0.00,,,0.08,WUHU216HW,2013-01-28 21:31:00,
2013-01-28 21:36:00,50.2,46.7,29.40,SSE,158,6.3,9.6,88,0.00,,,0.08,WUHU216HW,2013-01-28 21:36:00,
2013-01-28 21:41:00,50.4,46.9,29.40,SW,225,2.2,8.9,88,0.00,,,0.08,WUHU216HW,2013-01-28 21:41:00,
2013-01-28 21:46:00,50.4,46.9,29.40,NNE,23,2.9,8.9,88,0.00,,,0.08,WUHU216HW,2013-01-28 21:46:00,
2013-01-28 21:51:00,50.4,46.9,29.40,SW,225,8.3,8.3,88,0.00,,,0.08,WUHU216HW,2013-01-28 21:51:00,
2013-01-28 21:56:00,50.4,46.9,29.40,West,270,4.9,8.5,88,0.00,,,0.08,WUHU216HW,2013-01-28 21:56:00,
2013-01-28 22:01:00,50.4,46.9,29.40,South,180,3.8,9.6,88,0.00,,,0.08,WUHU216HW,2013-01-28 22:01:00,
2013-01-28 22:06:00,50.4,46.9,29.40,South,180,8.1,11.0,88,0.00,,,0.08,WUHU216HW,2013-01-28 22:06:00,
2013-01-28 22:11:00,50.4,46.9,29.40,South,180,2.5,11.0,88,0.00,,,0.08,WUHU216HW,2013-01-28 22:11:00,
2013-01-28 22:16:00,50.4,46.6,29.40,SSW,203,8.3,10.5,87,0.00,,,0.08,WUHU216HW,2013-01-28 22:16:00,
2013-01-28 22:21:00,50.6,46.8,29.40,WSW,248,9.6,9.8,87,0.00,,,0.08,WUHU216HW,2013-01-28 22:21:00,
2013-01-28 22:26:00,50.4,46.6,29.40,SW,225,7.6,9.6,87,0.00,,,0.08,WUHU216HW,2013-01-28 22:26:00,
2013-01-28 22:31:00,50.6,46.8,29.41,SSE,158,1.8,10.5,87,0.00,,,0.08,WUHU216HW,2013-01-28 22:31:00,
2013-01-28 22:36:00,50.6,46.8,29.42,SSE,158,4.7,10.5,87,0.00,,,0.08,WUHU216HW,2013-01-28 22:36:00,
2013-01-28 22:41:00,50.6,46.4,29.42,SW,225,2.0,6.9,86,0.00,,,0.08,WUHU216HW,2013-01-28 22:41:00,
2013-01-28 22:46:00,50.6,46.8,29.42,WSW,248,1.8,7.6,87,0.00,,,0.08,WUHU216HW,2013-01-28 22:46:00,
2013-01-28 22:51:00,50.6,46.4,29.43,North,0,1.3,7.6,86,0.00,,,0.08,WUHU216HW,2013-01-28 22:51:00,
2013-01-28 22:56:00,50.8,46.6,29.44,South,180,2.5,10.1,86,0.00,,,0.08,WUHU216HW,2013-01-28 22:56:00,
2013-01-28 23:01:00,50.8,46.6,29.43,NW,315,5.8,10.1,86,0.00,,,0.08,WUHU216HW,2013-01-28 23:01:00,
2013-01-28 23:06:00,50.8,46.6,29.43,South,180,2.0,9.6,86,0.00,,,0.08,WUHU216HW,2013-01-28 23:06:00,
2013-01-28 23:11:00,50.8,46.6,29.43,SSW,203,2.7,9.6,86,0.00,,,0.08,WUHU216HW,2013-01-28 23:11:00,
2013-01-28 23:16:00,50.8,46.6,29.44,SW,225,7.6,7.6,86,0.00,,,0.08,WUHU216HW,2013-01-28 23:16:00,
2013-01-28 23:21:00,50.8,46.6,29.44,SSE,158,4.3,7.6,86,0.00,,,0.08,WUHU216HW,2013-01-28 23:21:00,
2013-01-28 23:26:00,50.8,46.6,29.45,West,270,1.8,8.7,86,0.00,,,0.08,WUHU216HW,2013-01-28 23:26:00,
2013-01-28 23:31:00,50.8,46.6,29.45,SSW,203,2.5,10.3,86,0.00,,,0.08,WUHU216HW,2013-01-28 23:31:00,
2013-01-28 23:36:00,50.8,46.6,29.45,South,180,3.4,10.3,86,0.00,,,0.08,WUHU216HW,2013-01-28 23:36:00,
2013-01-28 23:41:00,50.6,46.4,29.45,NNW,338,1.3,7.6,86,0.00,,,0.08,WUHU216HW,2013-01-28 23:41:00,
2013-01-28 23:46:00,50.6,46.4,29.46,ESE,113,5.6,7.6,86,0.00,,,0.08,WUHU216HW,2013-01-28 23:46:00,
2013-01-28 23:51:00,50.6,46.4,29.46,WNW,293,2.7,5.8,86,0.00,,,0.08,WUHU216HW,2013-01-28 23:51:00,
2013-01-28 23:56:00,50.6,46.4,29.46,NW,315,4.3,6.3,86,0.00,,,0.08,WUHU216HW,2013-01-28 23:56:00,